Location: Newark
(46.7000°N, 60.6000°W)
Time: 20:36:57
(UTC+00:00)

Vanguard 1 Rocket - Pass Details

Date: 05 November 2020
Orbit: 656 x 4221 km, 34.3° (Epoch: 30 November)

Event Time Altitude Azimuth Distance (km) Brightness Sun altitude
Rises 14:31:43 0° 252° (WSW) 3,838 10.6 25.2°
Reaches altitude 10° 14:35:26 10° 236° (SW) 2,493 9.9 25.4°
Maximum altitude 14:39:18 20° 190° (S) 1,633 10.1 25.6°
Drops below altitude 10° 14:42:34 10° 142° (SE) 2,067 10.7 25.8°
Sets 14:45:17 0° 124° (ESE) 2,976 10.8 25.9°
